AKDT,Max TemperatureF,Mean TemperatureF,Min TemperatureF,Max Dew PointF,MeanDew PointF,Min DewpointF,Max Humidity, Mean Humidity, Min Humidity, Max Sea Level PressureIn, Mean Sea Level PressureIn, Min Sea Level PressureIn, Max VisibilityMiles, Mean VisibilityMiles, Min VisibilityMiles, Max Wind SpeedMPH, Mean Wind SpeedMPH, Max Gust SpeedMPH,PrecipitationIn, CloudCover, Events, WindDirDegrees
2013-4-1,43,34,27,34,28,24,89,79,59,30.12,30.04,29.98,10,10,10,14,2,,0.00,3,,241
2013-4-2,43,34,26,27,24,20,85,68,41,30.16,30.11,30.04,10,10,10,7,2,,0.00,1,,146
2013-4-3,44,36,28,30,24,21,78,62,45,30.22,30.19,30.16,10,10,9,7,3,,0.00,4,,73
2013-4-4,44,34,25,25,21,13,85,58,34,30.17,29.97,29.76,10,10,10,12,4,,0.00,0,,46
2013-4-5,39,31,23,24,19,13,72,59,45,29.75,29.59,29.49,10,10,10,10,3,,0.00,3,,252
2013-4-6,34,30,26,29,23,10,93,73,51,29.58,29.47,29.43,10,6,1,14,2,22,0.14,6,Snow,242
2013-4-7,25,22,17,12,8,7,68,58,53,29.80,29.72,29.60,10,10,10,20,13,29,0.00,6,,232
2013-4-8,28,20,12,12,8,5,77,60,41,29.78,29.61,29.32,10,10,10,13,6,20,0.00,4,,22
2013-4-9,21,18,15,13,8,3,77,60,50,29.55,29.26,29.12,10,8,2,23,10,33,0.00,7,Snow,255
2013-4-10,21,18,15,5,2,1,58,52,44,29.98,29.80,29.58,10,10,2,22,17,30,0.00,7,Snow,252
2013-4-11,28,20,12,12,7,1,74,56,33,30.12,30.03,29.99,10,8,1,15,8,23,0.01,4,Snow,25
2013-4-12,30,23,16,6,2,-4,54,39,26,30.15,30.11,30.09,10,10,10,16,10,21,0.00,0,,358
2013-4-13,36,26,17,8,3,-1,52,36,25,30.43,30.29,30.17,10,10,10,13,7,21,0.00,0,,6
2013-4-14,43,31,19,19,12,7,65,47,27,30.53,30.49,30.45,10,10,10,16,4,,0.00,0,,218
2013-4-15,42,32,23,23,16,12,75,52,31,30.43,30.34,30.28,10,10,10,13,6,23,0.00,0,,44
2013-4-16,39,32,26,17,12,7,63,44,27,30.27,30.17,30.12,10,10,10,12,7,17,0.00,0,,38
2013-4-17,39,29,21,14,9,3,63,41,24,30.17,30.14,30.12,10,10,10,12,6,16,0.00,0,,32
2013-4-18,44,34,26,19,14,8,61,44,29,30.18,30.15,30.11,10,10,10,10,5,23,0.00,0,,39
2013-4-19,43,34,26,25,16,11,60,46,32,30.34,30.25,30.16,10,10,10,10,6,18,0.00,0,,93
2013-4-20,46,34,24,25,20,16,81,54,34,30.42,30.39,30.35,10,10,10,6,3,,0.00,1,,105
2013-4-21,42,38,30,32,28,21,89,70,52,30.38,30.31,30.26,10,9,3,16,7,22,0.01,7,Rain-Snow,31
2013-4-22,48,36,27,32,28,24,89,70,44,30.50,30.45,30.39,10,10,10,6,2,,0.00,3,,93
2013-4-23,43,40,37,37,35,27,93,82,55,30.44,30.38,30.35,10,10,7,7,2,,0.35,8,Rain,321
2013-4-24,44,39,35,36,35,32,93,83,68,30.36,30.17,29.84,10,10,9,7,1,,0.00,7,,227
2013-4-25,46,38,32,32,16,5,75,41,21,29.85,29.78,29.69,10,10,10,23,14,38,0.01,2,Rain,25
2013-4-26,43,34,28,24,11,6,55,37,24,29.76,29.64,29.49,10,10,10,20,10,30,0.00,0,,320
2013-4-27,45,39,33,19,14,9,50,36,27,29.92,29.73,29.53,10,10,10,18,10,33,0.00,4,,8
2013-4-28,45,38,30,15,11,7,48,33,24,30.17,30.06,29.93,10,10,10,18,10,26,0.00,0,,41
2013-4-29,43,35,28,29,22,16,66,58,46,30.20,30.18,30.12,10,10,10,14,3,,0.00,0,,249
2013-4-30,46,38,30,32,27,22,76,62,44,30.11,29.94,29.78,10,10,10,10,3,,0.00,6,,228